Location: Newark
(34.1333°N, 7.9667°W)
Time: 02:20:07
(UTC+00:00)

Envisat - Pass Details

Date: 27 September 2021
Orbit: 764 x 766 km, 98.2° (Epoch: 17 October)

Event Time Altitude Azimuth Distance (km) Brightness Sun altitude
Rises 04:26:46 0° 34° (NE) 3,233 7.0 -24.7°
Reaches altitude 10° 04:30:01 10° 56° (NE) 2,302 6.4 -24.1°
Maximum altitude 04:33:03 16° 93° (E) 1,921 5.9 -23.5°
Drops below altitude 10° 04:36:04 10° 130° (SE) 2,293 5.9 -22.9°
Sets 04:39:16 0° 152° (SSE) 3,214 6.4 -22.2°
